Location: Blanton
(30.8302°N, 83.1188°W)
Time: 16:15:45
(UTC+00:00)

X-37B - Pass Details

Date: 06 December 2021
Orbit: 334 x 337 km, 45.0° (Epoch: 11 January)

Event Time Altitude Azimuth Distance (km) Brightness Sun altitude
Rises 22:55:30 0° 240° (WSW) 2,090 6.8 -5.7°
Reaches altitude 10° 22:57:31 10° 244° (WSW) 1,257 5.0 -6.1°
Maximum altitude 23:00:18 59° 326° (NW) 388 0.6 -6.6°
Drops below altitude 10° 23:03:05 10° 47° (NE) 1,262 2.6 -7.2°
Enters shadow 23:03:20 - 47° (NE) 1,360 2.7 -7.3°
